CAPE
1327 1223 1353 1438 1417 1352 1234 1287 1310 1303 1369 1293 1237 1258 1041 923 443 288 624 980 1013 1176 775 576 469 540 641 684 874 796 766 494 347 315 533 678 598 625 523 762 580 463 363
1217 1246 1219 1457 1363 1308 1175 1341 1104 1314 1096 1107 985 1179 1156 1100 769 450 572 686 687 1119 1164 761 797 507 463 368 433 519 739 1064 716 608 572 317 412 652 777 804 675 767 739
1460 1174 1148 1311 1281 1333 1643 1216 999 1417 551 770 937 976 987 1199 923 718 607 734 859 744 870 1224 1039 1100 1050 745 526 481 401 162 284 375 397 567 442 326 173 505 481 390 430
1454 1047 987 1179 1461 1362 1089 952 807 708 330 505 575 486 472 773 984 958 777 758 732 1048 685 609 982 1143 1052 1106 1170 1041 1002 908 784 660 619 622 671 722 742 540 595 349 385
1837 1587 1035 887 1105 1142 549 340 503 645 325 218 238 417 600 474 456 453 706 852 703 577 735 850 551 868 1047 1044 1367 1294 1246 1192 789 672 548 526 640 708 468 309 220 228 187
1892 1663 980 1121 1004 545 583 689 526 688 332 105 74 210 434 519 371 335 520 484 481 477 370 679 1115 1033 326 659 948 1280 1151 1268 1223 1055 911 637 514 321 244 223 93 51 41
1882 1889 1314 1075 1035 797 1019 624 1029 807 116 297 39 123 78 385 322 200 207 237 531 676 526 488 666 629 752 447 194 313 640 938 925 1104 1046 618 527 227 135 37 27 0 0
1933 1644 1612 1298 838 760 879 822 1047 555 192 113 58 40 36 10 29 106 210 307 397 515 553 680 560 682 603 361 482 481 325 519 714 810 724 921 597 243 64 8 0 0 0
1780 1741 1230 1317 1355 869 839 1072 1026 1026 153 193 336 84 6 40 32 108 517 395 509 391 389 523 668 716 788 557 457 351 273 319 436 208 302 676 523 102 11 0 0 0 0
1456 1615 1518 1187 1400 1252 919 946 964 1075 1026 51 2 8 140 151 123 346 175 428 662 540 522 457 468 674 840 764 505 216 295 217 219 23 67 758 362 45 0 0 0 0 0
1498 1349 1652 1655 1660 1316 1190 1126 907 1132 1040 622 4 0 278 152 440 280 226 261 286 418 439 548 464 501 662 802 652 712 320 105 91 5 13 502 331 25 0 0 0 0 0
843 1241 1385 1739 1499 1140 1392 1424 1486 1210 1458 1088 559 122 0 57 144 347 393 437 431 389 367 351 486 597 634 645 758 486 429 145 78 35 0 223 187 21 0 0 0 0 0
271 439 1459 1566 1452 1642 1521 1532 1627 1609 1163 1455 1581 498 305 233 250 100 101 197 310 270 357 329 390 576 656 739 715 569 450 221 142 74 0 0 29 1 0 0 0 0 0
142 212 942 1237 1409 1373 1709 1857 1728 1411 1650 1346 1759 1570 785 773 753 433 291 197 172 129 269 572 411 473 559 589 643 585 620 434 274 116 32 0 0 0 0 0 0 0 0
432 513 560 869 877 1135 1427 1778 1625 1887 1945 2059 1958 2046 1958 1119 1059 971 722 399 182 125 233 381 450 716 573 553 614 627 694 873 506 292 118 45 4 0 0 0 0 0 0
752 571 608 447 607 1059 1280 1640 1244 1603 2157 1966 1669 1678 1974 1189 1398 1446 1173 762 727 624 409 297 291 368 575 586 478 585 726 646 529 321 178 109 48 9 0 0 0 0 0
1025 1186 827 755 471 843 1285 1635 1529 1247 1671 2202 2272 2304 2437 2366 1493 1036 1246 1242 918 851 788 474 231 248 654 986 981 965 871 793 666 334 192 110 65 39 19 0 0 0 0
1367 1355 1240 1137 866 753 1207 1640 1634 1089 1658 2025 2261 2482 2627 2619 2780 2704 1856 1506 1405 1504 1446 1531 1316 1044 1211 1464 1786 1616 1289 882 706 527 208 116 71 24 0 0 0 0 0
1380 1430 1390 1285 1164 744 762 1264 1525 1559 1560 1838 2256 2451 2612 2778 2817 2619 2436 1881 1605 1731 1819 1807 1514 1011 874 979 1142 1675 1903 1825 1668 1353 851 429 230 40 0 0 0 0 0
1471 1481 1512 1415 1308 1076 655 640 856 1356 1510 1627 2006 2380 2598 2696 2751 2844 2974 2857 2678 2464 1825 1808 1538 1467 1414 1499 1580 1660 1754 1823 1885 1907 1965 1704 1328 277 1 0 0 0 0
1478 1555 1609 1530 1406 1233 725 732 583 599 1039 1549 1717 1875 2128 2233 2173 2442 2519 2566 2591 2369 1849 1542 1397 1263 1103 1198 1766 1799 1889 1909 2144 2626 2535 2196 1538 1601 1239 0 0 0 0
1632 1691 1634 1630 1456 1204 561 258 470 534 631 970 1233 1469 1714 1822 1954 1725 1587 1564 1774 2381 2880 2334 1720 1546 2269 2313 1944 1983 2029 2493 3007 2852 1996 1679 1616 1513 1177 707 251 0 0
1799 1805 1804 1763 1655 1662 1041 415 250 444 448 803 1237 1269 1069 573 867 1369 1571 1616 1538 1313 1354 1659 1914 2031 2048 2266 2666 3038 3100 3057 3017 2828 2366 1843 1735 1299 1030 698 259 7 0
1930 1899 1853 1876 1845 1789 1334 845 375 618 898 1090 1220 1476 1573 1407 1450 1310 1296 1441 1741 1859 2043 1957 2041 2204 2339 2804 3191 3327 2901 2725 2554 2368 2285 1537 1359 1019 156 5 0 0 1
2043 2076 2110 2137 2078 2028 1475 1023 690 850 835 1160 1433 1664 1897 1941 1918 1439 1363 1276 1440 1552 1373 1382 1506 1703 1964 2082 1988 1971 1949 2499 2471 2232 1225 897 291 62 0 3 2 0 0
1885 1759 1821 1952 1985 2105 1948 1044 751 1047 917 919 1328 1864 1578 1647 1919 1692 1653 1598 1641 1730 1884 2220 2958 3083 2586 3013 2776 2517 2503 2571 2403 1738 779 582 21 1 0 1 3 3 1
CIN
-1 0 0 -1 -1 -1 -1 -1 -1 -1 -1 -1 -1 -1 -1 -1 -1 -2 -2 -18 -11 -4 -19 -31 -47 -32 -27 -20 -5 -5 -3 -25 -41 -37 -6 -2 -3 -2 -2 0 -1 -4 -14
-3 0 -1 -1 -1 -1 -1 -1 -5 -2 -2 0 -2 0 -1 -1 -1 -1 -1 -26 -39 -11 -4 -16 -5 -35 -49 -63 -47 -11 -2 0 -2 -3 -2 -8 -6 -1 0 0 0 0 0
-3 -7 -1 -1 -1 -1 -1 -1 -13 -1 -1 -2 -1 -1 -1 -1 -2 -1 -1 -1 -22 -38 -23 -2 -4 -1 -2 -4 -18 -15 -11 -48 -28 -11 -3 -1 -3 -12 -35 0 -3 -9 -4
-1 -14 -4 -2 -4 -2 -1 -2 -2 -1 -2 -2 -1 -3 -3 -1 -1 -1 -2 -1 -1 -3 -47 -48 -16 -5 -7 -1 0 0 -1 -1 -2 -3 -4 -2 -1 0 0 0 0 -1 -1
0 0 -8 -6 -7 -3 -1 -1 -1 -1 -4 -22 -25 -7 -1 -1 -4 -3 -2 -2 -3 -2 -1 -31 -64 -39 -21 -5 0 0 0 0 -3 -6 -9 -13 -4 0 -2 -7 -20 -23 -34
-1 -1 -12 -5 -3 -1 -1 -1 -2 -2 -3 -32 -21 -50 -3 -1 -9 -12 -2 -2 -2 -6 -21 -3 -5 -13 -89 -34 -11 -2 -1 0 -1 -1 -1 -7 -11 -21 -27 -24 -56 -72 -64
-2 -4 -2 -5 -3 -3 -1 -6 -1 -5 -31 -6 -3 -44 -81 -2 -7 -28 -24 -25 -4 -2 -11 -27 -19 -19 -22 -74 -147 -111 -45 -7 -3 0 -1 -10 -11 -60 -84 -167 -165 0 0
-2 -4 -2 -3 -7 -6 -9 -7 -6 -2 -7 -40 -6 -3 -2 -3 -42 -45 -20 -24 -26 -18 -15 -12 -35 -45 -48 -80 -75 -117 -166 -113 -60 -31 -32 -5 -34 -106 -170 -186 0 0 0
-2 -2 -10 -7 -2 -9 -3 -1 -1 -2 -11 -10 -7 -11 -2 -3 -32 -32 -4 -14 -11 -25 -39 -34 -45 -60 -66 -106 -146 -177 -211 -203 -161 -221 -159 -53 -67 -193 -149 0 0 0 0
-5 -1 -5 -15 -8 -4 -16 -4 -3 -1 -9 -3 -15 -88 -26 -26 -22 -2 -34 -20 -15 -44 -61 -72 -79 -75 -71 -92 -140 -240 -244 -285 -272 -435 -345 -69 -138 -318 0 0 0 0 0
-8 -7 -6 -2 -2 -1 -2 -5 -13 -13 -3 -2 -6 0 -12 -15 -10 -27 -12 -24 -52 -53 -75 -80 -83 -93 -91 -92 -108 -115 -259 -389 -399 -223 -340 -175 -201 -413 0 0 0 0 0
-3 -10 -3 -6 -10 -4 -2 -1 0 -12 -3 -2 -2 -52 0 -58 -40 -16 -19 -26 -46 -70 -109 -130 -122 -113 -115 -129 -140 -215 -264 -399 -460 -518 0 -322 -292 -428 0 0 0 0 0
-21 -12 -7 -10 -4 -5 -1 -1 -1 -1 -9 -1 -9 -4 -26 -50 -62 -114 -125 -97 -89 -117 -126 -146 -154 -144 -141 -139 -152 -211 -281 -402 -432 -460 0 0 -443 -75 0 0 0 0 0
-48 -63 -14 -8 -9 -2 -1 -1 -3 -1 -1 -4 -1 -1 -3 -12 -27 -92 -127 -146 -155 -166 -142 -146 -166 -175 -173 -188 -182 -254 -232 -286 -352 -407 -463 0 0 0 0 0 0 0 0
-42 -52 -52 -33 -23 -13 -6 -1 -2 -1 0 0 -1 -1 -1 -13 -23 -49 -103 -164 -203 -207 -156 -148 -168 -162 -189 -177 -188 -213 -185 -161 -270 -338 -405 -453 -395 0 0 0 0 0 0
-49 -65 -76 -94 -70 -23 -17 -9 -1 -1 -1 -1 -1 -1 -1 -32 -26 -32 -69 -136 -150 -170 -175 -165 -163 -177 -184 -218 -239 -233 -201 -226 -270 -310 -334 -380 -445 -297 0 0 0 0 0
-50 -46 -69 -80 -115 -54 -18 -11 -8 -5 -1 -1 0 -1 -1 -1 -48 -84 -71 -91 -139 -159 -172 -175 -189 -208 -206 -230 -232 -214 -195 -181 -180 -293 -330 -365 -413 -436 -418 0 0 0 0
-68 -68 -60 -61 -91 -94 -30 -13 -13 -8 -7 -3 -1 0 -1 -1 0 -2 -43 -82 -92 -93 -119 -146 -145 -148 -125 -130 -151 -204 -218 -191 -172 -154 -300 -353 -392 -449 -28 0 0 0 0
-84 -75 -77 -82 -89 -123 -113 -53 -29 -17 -13 -9 -3 -1 -1 -1 -1 -6 -18 -54 -73 -79 -84 -102 -146 -164 -174 -166 -165 -129 -85 -90 -117 -132 -213 -302 -345 -441 0 0 0 0 0
-86 -92 -93 -101 -100 -111 -144 -131 -96 -55 -36 -23 -6 -5 -1 -2 -7 -8 -8 -16 -23 -47 -92 -106 -152 -152 -150 -134 -137 -128 -94 -33 -29 -30 -17 -26 -46 -299 -62 0 0 0 0
-102 -102 -92 -95 -103 -109 -150 -155 -148 -131 -98 -65 -40 -40 -29 -38 -54 -43 -27 -30 -25 -40 -94 -132 -161 -172 -172 -139 -69 -82 -83 -69 -23 -5 -2 -10 -44 -10 -52 0 0 0 0
-113 -101 -111 -105 -113 -134 -188 -240 -189 -143 -140 -113 -101 -92 -77 -77 -98 -152 -182 -184 -153 -69 -33 -97 -169 -190 -122 -80 -84 -79 -51 -12 0 -2 -41 -62 -7 -8 -5 -9 -80 0 0
-106 -124 -123 -123 -139 -149 -189 -257 -278 -202 -173 -154 -130 -125 -132 -167 -168 -142 -171 -224 -270 -336 -362 -286 -260 -218 -229 -157 -70 -23 -3 -1 0 -2 -2 -52 -5 -2 -2 -10 -185 -153 0
-117 -136 -154 -152 -154 -168 -221 -276 -319 -239 -188 -173 -162 -140 -144 -159 -151 -172 -181 -215 -218 -214 -235 -283 -300 -271 -222 -136 -57 -27 -45 -44 -36 -41 -9 -79 -38 -34 -359 -219 0 -2 0
-125 -143 -149 -157 -166 -177 -242 -301 -330 -240 -238 -224 -195 -179 -165 -171 -183 -255 -288 -322 -321 -310 -301 -359 -368 -344 -293 -259 -261 -235 -207 -77 -69 -73 -193 -174 -360 -225 0 0 0 0 0
-170 -168 -196 -193 -196 -185 -214 -333 -381 -240 -245 -247 -215 -211 -287 -283 -253 -301 -314 -328 -344 -322 -273 -231 -142 -148 -220 -135 -135 -148 -121 -89 -72 -139 -283 -258 -572 0 0 0 0 0 0
Wind_Speed
20 18 19 18 18 19 20 20 9 15 18 18 18 16 13 12 18 19 22 21 20 21 19 19 18 18 17 17 16 16 15 15 15 14 14 12 11 11 12 11 11 16 19
20 20 19 19 19 19 20 20 20 18 17 19 20 19 17 17 14 17 20 22 20 19 19 18 18 18 17 16 16 15 14 13 13 13 12 11 10 10 9 9 8 8 8
20 19 19 18 19 19 20 20 21 19 20 19 13 19 20 19 20 18 18 18 21 19 18 17 16 15 16 15 15 14 13 13 12 11 11 10 10 9 9 8 8 8 7
18 19 18 18 18 18 19 20 21 21 19 18 17 19 19 20 18 19 19 17 16 18 19 17 16 16 16 15 14 13 13 12 11 10 10 9 9 8 8 8 7 6 6
16 18 18 19 19 18 19 20 20 19 18 18 22 20 19 18 19 20 19 18 17 16 15 18 17 16 15 15 14 12 12 12 11 10 10 9 9 8 8 8 8 9 12
18 18 18 18 19 19 20 19 18 16 15 16 16 17 17 17 18 19 19 18 17 16 16 15 16 17 15 14 13 12 12 12 11 10 10 10 9 9 10 12 14 16 18
20 19 18 18 17 19 17 19 19 18 18 18 20 19 19 19 19 18 18 17 16 16 15 15 15 14 16 15 14 14 13 12 11 11 11 11 11 12 13 15 17 18 19
21 19 18 18 19 18 19 19 18 19 19 20 18 19 22 21 20 18 17 16 15 16 16 16 15 15 14 14 15 15 14 13 12 11 11 12 13 14 15 16 17 19 20
22 21 19 17 18 19 18 18 18 18 19 19 19 17 20 13 20 19 18 18 16 16 16 17 16 16 15 14 14 14 14 13 12 11 12 12 14 14 15 15 16 16 17
23 22 21 20 18 19 18 18 18 18 18 19 21 20 14 12 13 20 19 19 18 18 17 16 17 16 15 14 14 13 14 12 12 12 12 12 12 12 12 12 13 14 14
24 23 22 21 20 19 19 19 19 19 19 17 19 20 16 17 16 15 15 16 17 17 17 16 15 15 15 13 13 12 12 11 11 10 10 9 10 10 10 10 10 11 11
25 24 23 22 21 20 20 20 20 20 19 19 19 20 19 17 16 16 17 16 15 16 15 15 15 14 13 12 11 11 10 9 9 8 8 7 7 6 7 6 7 8 9
26 23 23 23 20 21 22 21 21 21 21 21 21 20 20 19 18 17 17 17 16 16 15 14 15 13 12 11 10 9 9 8 6 5 5 4 3 3 2 2 3 4 5
27 26 24 25 24 24 23 23 22 22 22 22 22 21 20 20 20 19 19 17 16 16 15 13 13 12 11 10 8 6 6 5 4 4 2 3 2 2 3 3 3 3 3
29 28 26 25 25 25 25 25 24 23 23 22 22 23 23 21 21 21 20 19 18 14 13 12 11 11 9 7 5 4 2 2 3 5 7 7 7 8 8 8 8 7 6
33 30 28 26 25 24 25 26 26 26 25 24 23 24 24 23 23 22 21 20 18 15 13 11 9 8 6 6 5 2 3 4 6 7 9 11 12 12 13 13 13 12 10
35 33 31 28 25 24 24 26 27 27 27 27 26 26 25 25 25 24 22 19 17 14 13 12 10 7 3 4 6 5 6 7 9 9 11 12 14 15 17 17 17 16 13
37 36 34 28 17 25 23 25 28 29 28 28 28 29 28 27 27 27 25 21 18 14 12 15 14 11 6 5 8 8 9 10 11 12 12 14 16 17 18 19 19 18 17
40 39 36 12 8 13 23 26 29 30 30 29 29 30 30 30 30 28 25 22 17 12 11 13 15 12 11 9 9 8 8 11 12 13 14 14 15 16 16 16 17 18 19
42 40 34 9 9 6 18 30 30 30 30 30 30 30 31 30 30 29 27 23 19 17 16 16 16 13 9 6 6 7 9 12 14 16 18 18 18 17 17 16 15 15 16
26 43 13 16 16 9 16 32 33 29 28 30 30 29 31 31 30 29 27 21 17 18 19 19 19 16 13 10 8 13 14 15 17 19 17 19 23 23 21 19 15 13 11
28 20 18 30 34 36 30 26 22 24 26 29 32 28 30 30 30 31 29 27 24 22 22 22 22 21 17 14 12 15 17 18 16 20 21 22 23 22 21 18 16 12 6
31 28 18 36 37 35 35 25 22 24 26 26 26 29 30 32 27 29 26 24 24 25 23 24 25 24 24 17 14 14 14 13 14 16 20 23 26 23 23 26 20 14 6
30 30 27 36 27 26 28 26 20 18 21 27 30 29 30 33 32 29 25 26 25 24 19 18 18 17 14 11 10 11 12 13 12 15 18 22 27 23 30 31 30 15 8
32 31 30 25 15 16 17 21 17 19 25 26 27 29 35 35 32 25 26 27 28 26 21 21 20 19 18 16 13 11 12 13 16 20 21 22 28 28 29 34 31 21 17
32 32 29 22 15 14 14 18 19 19 20 20 19 27 33 34 29 19 20 21 25 20 15 16 13 9 10 10 9 12 13 14 17 21 20 23 24 25 25 28 29 26 23
Wind_Direction
149 159 140 132 123 132 126 123 352 178 157 161 171 182 194 203 148 151 99 116 131 128 143 142 141 142 147 150 156 154 149 138 132 128 127 145 168 198 232 232 238 291 305
138 144 129 124 114 125 129 125 144 173 180 160 151 159 173 172 186 163 137 118 136 146 152 153 146 144 153 159 161 161 156 147 133 135 134 139 149 164 169 175 181 183 215
128 145 136 139 126 138 140 141 156 166 155 159 209 162 149 160 145 159 162 160 122 136 150 157 168 173 164 163 162 164 161 154 150 155 155 149 149 143 149 149 143 153 157
168 155 158 153 144 149 149 146 154 160 161 169 173 158 162 156 162 150 150 163 172 139 139 143 160 169 164 162 166 166 162 163 166 162 161 160 158 155 153 151 156 158 157
188 167 159 153 149 152 149 148 160 174 173 176 150 156 163 164 159 151 155 161 159 171 178 132 155 169 170 170 167 165 171 171 169 160 155 152 143 135 130 125 113 89 65
188 177 161 164 160 158 153 160 169 183 197 196 189 186 177 177 170 162 164 170 171 180 176 178 156 150 151 163 168 173 173 173 157 151 145 134 123 112 95 78 62 47 37
184 186 170 172 173 166 173 164 160 163 170 179 166 168 171 159 163 168 169 182 181 178 183 174 176 175 139 138 150 154 157 153 142 134 131 118 100 89 77 62 53 46 37
185 194 196 181 165 171 166 166 172 156 156 167 174 168 132 143 159 169 179 190 200 195 174 167 172 163 165 160 141 136 139 133 128 125 113 97 89 77 68 63 57 47 39
183 188 192 203 189 173 177 178 172 184 153 160 177 182 150 178 140 155 166 178 186 176 174 155 151 152 146 150 145 136 128 124 121 113 102 90 70 71 68 66 57 64 59
188 190 191 196 197 178 182 191 190 195 195 169 163 174 219 230 210 104 129 152 161 161 153 155 143 139 141 138 127 139 114 113 100 93 92 91 89 85 89 87 82 68 60
201 198 193 187 190 187 194 189 192 199 194 213 194 186 221 204 195 217 207 182 159 149 157 154 162 154 142 144 137 129 127 129 126 114 109 110 90 89 77 78 69 64 65
203 202 194 186 185 195 188 183 178 194 213 209 208 209 206 216 218 213 203 196 210 192 186 174 158 161 163 155 150 147 130 131 131 119 113 106 104 96 74 70 68 47 40
203 187 188 188 173 180 199 194 188 201 191 200 200 206 212 212 219 220 212 207 206 216 203 190 174 162 167 164 172 154 159 166 158 146 137 123 121 104 99 68 37 26 23
212 206 189 196 197 200 192 188 194 193 187 187 192 206 213 214 214 214 214 215 199 209 179 167 172 169 157 166 170 143 180 184 193 204 230 237 249 269 274 286 280 314 339
229 229 201 196 197 194 196 198 197 195 198 189 192 201 208 216 214 214 214 209 202 186 176 143 143 120 162 161 149 157 170 200 240 252 259 264 271 273 275 280 281 274 282
220 231 213 196 191 189 188 198 206 204 203 202 200 202 214 220 221 214 213 206 195 189 200 180 172 175 179 209 221 233 260 293 293 281 281 279 276 276 275 272 270 271 269
217 218 219 203 189 187 186 194 205 215 210 208 210 210 211 225 227 222 209 198 195 189 201 208 204 205 201 233 255 268 291 300 303 297 294 292 284 280 275 273 268 262 262
214 218 220 200 174 190 184 190 203 210 206 206 211 216 219 224 225 228 221 209 207 202 208 229 231 237 246 267 275 292 312 317 316 324 318 305 300 296 290 281 269 266 258
217 220 215 183 183 174 187 195 204 211 213 214 215 218 222 226 228 227 219 215 207 202 208 225 241 245 254 268 281 300 325 339 328 326 324 321 315 319 315 299 287 277 263
225 217 205 206 199 217 184 205 207 209 212 215 217 217 222 221 223 225 221 217 215 220 225 231 238 244 252 273 298 310 325 342 338 341 341 344 339 341 332 324 312 299 273
197 224 205 195 192 211 205 206 211 205 205 213 214 214 221 222 224 224 221 213 211 219 228 236 242 248 256 268 293 297 304 324 336 350 344 350 357 349 345 340 326 315 297
251 253 198 198 204 211 202 196 193 196 202 210 219 215 219 222 224 224 223 223 223 226 231 237 246 252 260 269 282 290 296 303 312 1 2 351 347 346 348 347 347 339 316
250 253 250 204 207 208 210 198 198 201 206 208 211 217 221 225 217 223 221 221 224 228 229 237 247 251 262 269 280 293 299 308 317 341 350 347 356 351 355 358 354 350 345
248 251 255 247 205 201 203 202 203 207 208 214 218 218 220 225 224 221 221 225 226 228 225 229 237 249 258 273 289 304 324 322 328 339 352 351 358 4 2 0 358 2 30
248 251 254 258 235 213 208 205 208 207 211 215 216 218 224 226 222 217 220 225 230 232 234 237 244 251 259 269 279 294 321 339 344 358 6 2 5 6 12 9 13 41 73
248 250 254 257 238 229 225 210 207 206 209 211 213 215 221 222 218 213 216 221 228 231 237 241 249 291 303 314 322 343 345 344 350 358 10 6 10 14 18 25 33 49 72